• In Belgien
  • Länderverzeichnis
  • Für 7 Tage
  • Wassertemperatur
  • Satellitenkarten
  • Wetterkarte
  • Widgets
  • user-avatar
    Anmelden

    Stündliche Wetter Melbourne

    Heute, 24 Juli, Montag

    Zeit Temperatur Niederschläge Wind Luftdruck Luftfeuchtigkeit
    00:00 +8°C° 0 mm 2 m/S 761 mmHg 95%
    01:00 +8°C° 0 mm 2 m/S 761 mmHg 95%
    02:00 +7°C° 0 mm 2 m/S 761 mmHg 95%
    03:00 +7°C° 0 mm 2 m/S 762 mmHg 96%
    04:00 +7°C° 0 mm 2 m/S 762 mmHg 96%
    05:00 +7°C° 0 mm 2 m/S 762 mmHg 96%
    06:00 +7°C° 0 mm 2 m/S 762 mmHg 96%
    07:00 +7°C° 0 mm 2 m/S 763 mmHg 95%
    08:00 +8°C° 0 mm 3 m/S 763 mmHg 92%
    09:00 +9°C° 0 mm 3 m/S 763 mmHg 88%
    10:00 +11°C° 0 mm 3 m/S 763 mmHg 84%
    11:00 +12°C° 0 mm 3 m/S 763 mmHg 78%
    12:00 +13°C° 0 mm 3 m/S 763 mmHg 73%
    13:00 +14°C° 0 mm 3 m/S 763 mmHg 67%
    14:00 +14°C° 0,1 mm 3 m/S 763 mmHg 69%
    15:00 +14°C° 0,1 mm 3 m/S 762 mmHg 70%
    16:00 +13°C° 0,1 mm 3 m/S 762 mmHg 72%
    17:00 +12°C° 0 mm 3 m/S 762 mmHg 78%
    18:00 +11°C° 0 mm 3 m/S 763 mmHg 84%
    19:00 +10°C° 0 mm 3 m/S 763 mmHg 90%
    20:00 +10°C° 0,1 mm 3 m/S 763 mmHg 90%
    21:00 +10°C° 0,1 mm 3 m/S 763 mmHg 91%
    22:00 +10°C° 0 mm 4 m/S 762 mmHg 88%
    23:00 +10°C° 0 mm 4 m/S 762 mmHg 88%

    Morgen, 25 Juli, Dienstag

    Zeit Temperatur Niederschläge Wind Luftdruck Luftfeuchtigkeit
    00:00 +10°C° 0 mm 4 m/S 762 mmHg 88%
    01:00 +10°C° 0 mm 4 m/S 762 mmHg 88%
    02:00 +10°C° 0 mm 4 m/S 762 mmHg 87%
    03:00 +8°C° 0 mm 4 m/S 762 mmHg 85%
    04:00 +8°C° 0 mm 4 m/S 762 mmHg 84%
    05:00 +8°C° 0 mm 5 m/S 761 mmHg 82%
    06:00 +8°C° 0 mm 5 m/S 761 mmHg 81%
    07:00 +8°C° 0 mm 5 m/S 761 mmHg 80%
    08:00 +10°C° 0 mm 6 m/S 761 mmHg 75%
    09:00 +11°C° 0 mm 6 m/S 761 mmHg 71%
    10:00 +13°C° 0 mm 6 m/S 761 mmHg 67%
    11:00 +14°C° 0 mm 6 m/S 760 mmHg 64%
    12:00 +15°C° 0 mm 6 m/S 759 mmHg 60%
    13:00 +16°C° 0 mm 6 m/S 759 mmHg 57%
    14:00 +16°C° 0,1 mm 6 m/S 758 mmHg 59%
    15:00 +16°C° 0,1 mm 5 m/S 758 mmHg 61%
    16:00 +16°C° 0,1 mm 5 m/S 758 mmHg 63%
    17:00 +14°C° 0,5 mm 4 m/S 758 mmHg 70%
    18:00 +13°C° 0,5 mm 4 m/S 758 mmHg 77%
    19:00 +12°C° 0,5 mm 4 m/S 758 mmHg 84%
    20:00 +12°C° 0,2 mm 4 m/S 758 mmHg 84%
    21:00 +11°C° 0,2 mm 4 m/S 758 mmHg 85%
    22:00 +10°C° 0,2 mm 5 m/S 758 mmHg 86%
    23:00 +10°C° 0 mm 5 m/S 758 mmHg 86%

    übermorgen, 26 Juli, Mittwoch

    Zeit Temperatur Niederschläge Wind Luftdruck Luftfeuchtigkeit
    00:00 +9°C° 0 mm 5 m/S 758 mmHg 86%
    01:00 +9°C° 0 mm 5 m/S 758 mmHg 86%
    02:00 +9°C° 0 mm 5 m/S 758 mmHg 86%
    03:00 +9°C° 0 mm 5 m/S 758 mmHg 86%
    04:00 +9°C° 0 mm 5 m/S 758 mmHg 86%
    05:00 +9°C° 0,1 mm 5 m/S 759 mmHg 85%
    06:00 +9°C° 0,1 mm 5 m/S 759 mmHg 85%
    07:00 +10°C° 0,1 mm 4 m/S 759 mmHg 84%
    08:00 +9°C° 0,1 mm 5 m/S 760 mmHg 83%
    09:00 +10°C° 0,1 mm 5 m/S 761 mmHg 82%
    10:00 +10°C° 0,1 mm 5 m/S 761 mmHg 80%
    11:00 +12°C° 0,3 mm 5 m/S 762 mmHg 78%
    12:00 +12°C° 0,3 mm 5 m/S 762 mmHg 76%
    13:00 +13°C° 0,3 mm 5 m/S 762 mmHg 74%
    14:00 +12°C° 0,2 mm 5 m/S 763 mmHg 73%
    15:00 +12°C° 0,2 mm 5 m/S 763 mmHg 73%
    16:00 +12°C° 0,2 mm 4 m/S 764 mmHg 72%
    17:00 +11°C° 0,1 mm 4 m/S 764 mmHg 76%
    18:00 +10°C° 0,1 mm 3 m/S 765 mmHg 80%
    19:00 +8°C° 0,1 mm 2 m/S 766 mmHg 83%
    20:00 +8°C° 0 mm 2 m/S 766 mmHg 85%
    21:00 +7°C° 0 mm 2 m/S 766 mmHg 87%
    22:00 +7°C° 0 mm 2 m/S 767 mmHg 88%
    23:00 +6°C° 0 mm 2 m/S 767 mmHg 89%

    27 Juli, Donnerstag

    Zeit Temperatur Niederschläge Wind Luftdruck Luftfeuchtigkeit
    00:00 +6°C° 0 mm 2 m/S 767 mmHg 90%
    01:00 +7°C° 0 mm 1 m/S 767 mmHg 91%
    02:00 +5°C° 0 mm 2 m/S 767 mmHg 91%
    03:00 +5°C° 0 mm 2 m/S 766 mmHg 91%
    04:00 +5°C° 0 mm 2 m/S 766 mmHg 91%
    05:00 +5°C° 0 mm 2 m/S 766 mmHg 91%
    06:00 +5°C° 0 mm 2 m/S 766 mmHg 90%
    07:00 +5°C° 0 mm 2 m/S 766 mmHg 90%
    08:00 +7°C° 0 mm 3 m/S 766 mmHg 85%
    09:00 +7°C° 0 mm 4 m/S 766 mmHg 80%
    10:00 +10°C° 0 mm 4 m/S 766 mmHg 75%
    11:00 +10°C° 0 mm 5 m/S 765 mmHg 70%
    12:00 +12°C° 0 mm 5 m/S 764 mmHg 65%
    13:00 +14°C° 0 mm 6 m/S 763 mmHg 59%
    14:00 +13°C° 0 mm 6 m/S 762 mmHg 61%
    15:00 +13°C° 0 mm 6 m/S 761 mmHg 63%
    16:00 +12°C° 0 mm 7 m/S 761 mmHg 65%
    17:00 +12°C° 0,3 mm 7 m/S 760 mmHg 69%
    18:00 +11°C° 0,3 mm 7 m/S 760 mmHg 73%
    19:00 +11°C° 0,3 mm 7 m/S 760 mmHg 77%
    20:00 +10°C° 0,8 mm 8 m/S 759 mmHg 80%
    21:00 +10°C° 0,8 mm 8 m/S 759 mmHg 83%
    22:00 +10°C° 0,8 mm 8 m/S 759 mmHg 85%
    23:00 +10°C° 0,7 mm 7 m/S 759 mmHg 87%

    28 Juli, Freitag

    Zeit Temperatur Niederschläge Wind Luftdruck Luftfeuchtigkeit
    00:00 +10°C° 0,7 mm 6 m/S 759 mmHg 89%
    01:00 +10°C° 0,7 mm 5 m/S 759 mmHg 90%
    02:00 +9°C° 0,1 mm 5 m/S 759 mmHg 91%
    03:00 +8°C° 0,1 mm 4 m/S 760 mmHg 92%
    04:00 +8°C° 0,1 mm 4 m/S 760 mmHg 93%
    05:00 +8°C° 0 mm 3 m/S 761 mmHg 93%
    06:00 +8°C° 0 mm 3 m/S 761 mmHg 93%
    07:00 +7°C° 0 mm 3 m/S 762 mmHg 93%
    08:00 +8°C° 0 mm 3 m/S 762 mmHg 89%
    09:00 +10°C° 0 mm 3 m/S 763 mmHg 86%
    10:00 +11°C° 0 mm 3 m/S 763 mmHg 82%
    11:00 +12°C° 0 mm 3 m/S 763 mmHg 74%
    12:00 +13°C° 0 mm 3 m/S 762 mmHg 65%
    13:00 +15°C° 0 mm 2 m/S 762 mmHg 57%
    14:00 +15°C° 0 mm 2 m/S 762 mmHg 59%
    15:00 +15°C° 0 mm 2 m/S 762 mmHg 60%
    16:00 +15°C° 0 mm 2 m/S 761 mmHg 62%
    17:00 +14°C° 0 mm 2 m/S 762 mmHg 67%
    18:00 +12°C° 0 mm 3 m/S 762 mmHg 71%
    19:00 +11°C° 0 mm 3 m/S 762 mmHg 76%
    20:00 +11°C° 0 mm 4 m/S 762 mmHg 74%
    21:00 +10°C° 0 mm 5 m/S 761 mmHg 71%
    22:00 +10°C° 0 mm 5 m/S 761 mmHg 69%
    23:00 +10°C° 0 mm 6 m/S 760 mmHg 66%

    29 Juli, Samstag

    Zeit Temperatur Niederschläge Wind Luftdruck Luftfeuchtigkeit
    00:00 +10°C° 0 mm 7 m/S 759 mmHg 64%
    01:00 +11°C° 0 mm 7 m/S 759 mmHg 62%
    02:00 +11°C° 0 mm 8 m/S 758 mmHg 61%
    03:00 +11°C° 0 mm 8 m/S 757 mmHg 60%
    04:00 +11°C° 0 mm 9 m/S 757 mmHg 59%
    05:00 +11°C° 0 mm 9 m/S 756 mmHg 59%
    06:00 +11°C° 0 mm 9 m/S 756 mmHg 59%
    07:00 +11°C° 0 mm 9 m/S 756 mmHg 60%
    08:00 +11°C° 0 mm 9 m/S 755 mmHg 57%
    09:00 +12°C° 0 mm 8 m/S 755 mmHg 55%
    10:00 +13°C° 0 mm 8 m/S 754 mmHg 53%
    11:00 +16°C° 0 mm 8 m/S 753 mmHg 50%
    12:00 +17°C° 0 mm 8 m/S 752 mmHg 47%
    13:00 +20°C° 0 mm 8 m/S 751 mmHg 44%
    14:00 +20°C° 0 mm 7 m/S 751 mmHg 44%
    15:00 +21°C° 0 mm 6 m/S 750 mmHg 44%
    16:00 +21°C° 0 mm 5 m/S 750 mmHg 44%
    17:00 +19°C° 0,4 mm 5 m/S 750 mmHg 56%
    18:00 +16°C° 0,4 mm 6 m/S 751 mmHg 67%
    19:00 +14°C° 0,4 mm 7 m/S 752 mmHg 78%
    20:00 +13°C° 1,2 mm 6 m/S 752 mmHg 83%
    21:00 +12°C° 1,2 mm 5 m/S 753 mmHg 88%
    22:00 +11°C° 1,2 mm 4 m/S 753 mmHg 92%
    23:00 +11°C° 0,6 mm 4 m/S 753 mmHg 92%
    Mehr zeigen